Regional Weather Roundup
Issued by NWS Green Bay, WI

Home | Current Version | Previous Version | Text Only | Print | Product List | Glossary On
Versions: 1 2 3 4 5 6 7 8 9 10 11 12 13 14 15 16 17 18 19 20 21 22 23 24 25 26 27 28 29 30 31 32 33 34 35 36 37 38 39 40 41 42 43 44 45 46 47 48 49 50
000
ASUS43 KGRB 261410
RWRGRB

NORTH-CENTRAL AND NORTHEAST WISCONSIN REGIONAL WEATHER ROUNDUP
NATIONAL WEATHER SERVICE GREEN BAY WI
800 AM CST FRI DEC 26 2014

WIZ005-009-010>012-018-019-261500-
NORTH CENTRAL WISCONSIN

CITY           SKY/WX    TMP DP  RH WIND       PRES   REMARKS
IRONWOOD       CLOUDY    30  30 100 N5        29.92F
MANITOWISH WTR CLOUDY    28  28 100 CALM      29.91S
ARBOR VITAE    CLOUDY    32  30  94 CALM      29.91S FOG
EAGLE RIVER    CLOUDY    29  29 100 CALM      29.91S FOG
LAND O LAKES   CLOUDY    28  28 100 CALM      29.92S FOG
RHINELANDER    CLOUDY    29  28  96 NE5       29.91S
PHILLIPS       CLOUDY    29  28  95 NE7       29.90S
ANTIGO         FOG       28  28 100 CALM      29.92R VSB<1/4
TOMAHAWK       CLOUDY    29  28  96 CALM      29.91S FOG
MERRILL        CLOUDY    29  29 100 E3        29.91R FOG
$$

WIZ013-073-261500-
NORTHEAST WISCONSIN

CITY           SKY/WX    TMP DP  RH WIND       PRES   REMARKS
IRON MOUNTAIN  CLOUDY    31  29  92 CALM      29.92F FOG
MARINETTE      CLOUDY    28  28 100 CALM      29.95S
OCONTO         PTCLDY    24  24 100 CALM      29.95S
$$

WIZ017-030-035>037-045-261500-
CENTRAL WISCONSIN

CITY           SKY/WX    TMP DP  RH WIND       PRES   REMARKS
MEDFORD        CLOUDY    29  28  97 NE6       29.90R FOG
WAUSAU         FOG       27  27 100 E5        29.90R VSB 1/4
MOSINEE        FOG       25  25 100 E3        29.92R VSB 1/8
MARSHFIELD     FOG       26  25  96 CALM      29.90R VSB 1/4
WISC RAPIDS    MOCLDY    24  22  91 CALM      29.93R FOG
STEVENS POINT  FOG       22  22  98 CALM      29.93R VSB 1/2
WAUPACA        FOG       28  26  96 CALM      29.93S VSB<1/4
SHAWANO        FOG       28  27  94 CALM      29.95R VSB<1/4
CLINTONVILLE     N/A     27  27 100 CALM      29.93S FOG
$$

WIZ038-039-048-051-261500-
FOX VALLEY

CITY           SKY/WX    TMP DP  RH WIND       PRES   REMARKS
NWS GREEN BAY  FOG       30  29  96 CALM      29.95S VSB 1/2
APPLETON       PTCLDY    30  30 100 VRB3      29.94R
OSHKOSH        CLEAR     32  29  88 CALM      29.93S FOG
FOND DU LAC    CLEAR     35  31  85 S7        29.93S
$$

WIZ022-050-052-261500-
EAST CENTRAL WISCONSIN

CITY           SKY/WX    TMP DP  RH WIND       PRES   REMARKS
STURGEON BAY   CLOUDY    34  30  86 S6        29.97R
MANITOWOC      PTCLDY    30  28  93 CALM      29.96S FOG
SHEBOYGAN      PTCLDY    32  31  96 S3        29.95S
$$

LMZ563-521-522-541>543-261500-
LAKESHORE

STATION/POSITION TIME  TEMP    WIND        PRES    VSBY  WAVE
                       AIR SEA DIR/SP/G                  HT/PER
                 (UTC) (F)     (DEG/KT/KT) (MB)    (MI)  (FT/S)
SHEBOYGAN LKSHOR 1400   39 39  180/ 11/ 11 1015.0S
KEWAUNEE LKSHORE 1400   35     190/  3/  5 1013.7R
ALGOMA MARINA    1400             CALM       N/A
TWO RIVERS CG    1300   36                 1014.4      6   3
NORTHPORT PIER   1400   34      CALM  /  1 1014.6S
SISTER BAY LKSHO 1400             CALM       N/A
STURGEON BAY CG  1300   34     210/  3     1014.4      6   1
CHAMBERS ISLAND  1400   33      CALM  /  2 1014.6S
MENOMINEE LKSHOR 1400   32     350/  3/  4 1015.0S
$$



USA.gov is the U.S. government's official web portal to all federal, state and local government web resources and services.